Volver al catálogo

GONETS M 08

M18

ActivoComunicacionesPO
NORAD 40061·PAYLOAD·🇷🇺 Russia

Lanzado Jul 3, 2014 desde Plesetsk Cosmodrome

Loading…

Próximos Pases (próximas 24 horas)

TLE

ActualizadoSource: Space-Track

Época: Sep 14, 2026, 15:11 UTC

1 40061U 14036A   26257.63299395 -.00000012  00000-0 -15911-3 0  9998
2 40061  82.5046 252.0085 0029002 316.0711  43.8063 12.42987641553564

Sigue GONETS M 08 en tiempo real con AllMySat

Download on the App Store